This is the latest recevied weather packets stored in our database for station/object W4UWO. If no packets are shown the sender has not sent any weather packets the latest 10 day(s).
| Time | Temp. | Humidity | Pressure | Rain* | Wind** | Luminosity | Snow |
|---|---|---|---|---|---|---|---|
| 1788020841 | 31.67° C | 52% | 1021.8 hPa | 0 mm | - | 780 W/m² | - |
| 1788020544 | 32.22° C | 51% | 1021.8 hPa | 0 mm | - | 774 W/m² | - |
| 1788020232 | 31.67° C | 52% | 1021.7 hPa | 0 mm | - | 765 W/m² | - |
| 1788019928 | 31.11° C | 52% | 1021.8 hPa | 0 mm | - | 756 W/m² | - |
| 1788019623 | 30.56° C | 52% | 1021.9 hPa | 0 mm | - | 748 W/m² | - |
| 1788019322 | 31.11° C | 52% | 1021.7 hPa | 0 mm | - | 736 W/m² | - |
| 1788019020 | 30.56° C | 54% | 1021.8 hPa | 0 mm | - | 727 W/m² | - |
| 1788018715 | 30.56° C | 55% | 1021.9 hPa | 0 mm | - | 716 W/m² | - |
| 1788018414 | 30° C | 55% | 1021.7 hPa | 0 mm | - | 706 W/m² | - |
| 1788018109 | 30° C | 56% | 1021.9 hPa | 0 mm | - | 695 W/m² | - |
| 1788017805 | 30° C | 56% | 1021.8 hPa | 0 mm | - | 682 W/m² | - |
| 1788017502 | 30.56° C | 54% | 1021.9 hPa | 0 mm | - | 669 W/m² | - |
| 1788017199 | 30.56° C | 56% | 1021.8 hPa | 0 mm | - | 657 W/m² | - |
| 1788016898 | 29.44° C | 58% | 1021.7 hPa | 0 mm | - | 644 W/m² | - |
| 1788016597 | 28.89° C | 59% | 1022 hPa | 0 mm | - | 622 W/m² | - |
| 1788016292 | 28.89° C | 59% | 1021.9 hPa | 0 mm | - | 620 W/m² | - |
| 1788015990 | 28.89° C | 59% | 1021.8 hPa | 0 mm | - | 598 W/m² | - |
| 1788015686 | 27.78° C | 63% | 1021.7 hPa | 0 mm | - | 589 W/m² | - |
| 1788015386 | 27.78° C | 62% | 1021.8 hPa | 0 mm | - | 572 W/m² | - |
| 1788015080 | 27.22° C | 63% | 1021.8 hPa | 0 mm | - | 550 W/m² | - |
| 1788014779 | 27.22° C | 64% | 1021.7 hPa | 0 mm | - | 537 W/m² | - |
| 1788014474 | 27.22° C | 62% | 1022 hPa | 0 mm | - | 516 W/m² | - |
| 1788014175 | 27.22° C | 63% | 1022 hPa | 0 mm | - | 507 W/m² | - |
| 1788013869 | 27.22° C | 64% | 1021.9 hPa | 0 mm | - | 502 W/m² | - |
| 1788013568 | 27.22° C | 63% | 1021.8 hPa | 0 mm | - | 487 W/m² | - |
* Rain latest hour (hover to see other rain measurements)
** Current wind speed in m/s (hover to see current wind gust speed)